ROMMA est une association bénévole à but non lucratif. Votre soutien est indispensable : ADHERER à ROMMA ou FAIRE un DON

La Beaume - (05, Hautes Alpes)

Buëch (820 m)   Longitude: 5° 40' 9'' E   Latitude: 44° 32' 3'' N Station partenaire n°75
 

Détail journalier du     <<     >>

Température Precipitation Humidité Pression Vent Dir Rafale Dir. rafale Ensol.
Heure (°C) (mm) (%) (hPa) (km/h) (km/h) (min)
01:00 12.1070101412N39N0
02:00 11.3070101410NO34N0
03:00 12.1068101416NO42NE0
04:00 11.3071101413N35ONO0
05:00 11.1072101415N37N0
06:00 11.6070101411N32NO0
07:00 11.5072101415N35N0
08:00 10.3075101410NO31N0
09:00 12.6069101410N32N0
10:00 14.2061101513N32NO60
11:00 14.3063101515N35NNE60
12:00 15.7056101419NNE40NE60
13:00 17.4054101418NNE34NNE60
14:00 18.0050101310N27NNE60
15:00 17.5053101315NNE29NE30
16:00 17.3057101315N35O60
17:00 16.0060101212ONO27ONO0
18:00 14.9063101313O26O0
19:00 13.9068101310O21ONO0
20:00 13.5071101311NO34ONO0
21:00 12.00.68410127ONO29O0
22:00 12.808110128NO21ONO0
23:00 13.1080101110ONO26ONO0
minuit 11.0079101221O44O0

Graphique du 06-10-2019

 

Serveur OMMA